Terminal Aerodrome Forecast
Issued by NWS

Current Version | Previous Version | Graphics & Text | Print | Product List | Glossary On
Versions: 1 2 3 4 5 6 7 8 9 10 11 12 13 14 15 16 17 18 19 20 21 22 23 24 25 26 27 28 29 30 31 32 33 34 35 36 37 38 39 40 41 42 43 44 45 46 47 48 49 50
000
FTUS41 KRNK 051418 AAC
TAFLWB
TAF AMD
KLWB 051418Z 0514/0612 29006KT 1 1/2SM -PL SCT006 OVC013
     FM051530 34004KT 1SM -SN BR OVC007
      TEMPO 0516/0518 1/2SM SN FG OVC002
     FM052200 32005KT 3SM BR OVC008
     FM060200 34005KT P6SM OVC025=

USA.gov is the U.S. government's official web portal to all federal, state and local government web resources and services.